Vorticity
6 6 7 6 6 7 7 7 7 7 7 7 7 7 7 7 7 7 7 7 7 8 8 8 8 8 7 7 7 7 7 6 7 7 7 7 7 7 7 6 6 6
5 6 6 6 7 7 8 8 7 7 7 7 7 7 7 7 7 7 7 7 7 7 8 7 6 6 6 7 7 7 7 6 6 6 6 7 7 7 7 6 7 7
6 6 6 6 7 6 7 9 8 7 7 6 6 6 7 7 7 8 7 7 8 7 7 7 6 6 6 7 8 8 8 8 7 7 7 7 7 6 8 8 7 8
7 7 7 6 6 6 7 8 8 8 8 7 7 6 6 7 7 8 7 7 8 8 8 8 8 8 7 8 9 9 9 9 8 8 8 8 7 8 9 9 8 8
7 7 8 7 6 6 6 6 7 7 7 7 8 7 7 7 6 7 7 7 7 7 7 8 8 8 8 8 9 9 10 10 9 9 9 9 8 9 9 10 9 8
5 6 7 8 8 7 6 7 6 6 7 7 8 8 7 8 8 7 7 7 7 7 7 6 6 7 7 7 8 8 8 9 9 9 9 9 8 8 9 9 8 7
4 5 5 5 7 7 6 6 6 6 6 6 7 7 7 8 7 7 7 7 7 6 6 6 6 6 6 6 6 6 6 6 7 7 7 7 7 7 7 6 6 6
7 6 5 5 6 7 7 6 6 5 5 5 6 5 5 6 6 7 7 7 7 7 6 6 5 5 5 5 5 5 5 4 4 5 6 5 5 5 5 5 5 4
11 8 8 8 6 7 9 7 6 8 7 5 5 5 5 5 6 7 7 6 7 7 7 6 6 6 6 5 6 5 5 5 4 4 5 4 4 4 4 4 3 4
8 8 7 8 6 5 7 5 3 6 6 6 7 6 6 6 6 6 7 7 7 7 8 8 7 7 8 7 7 6 6 6 5 6 6 6 6 6 5 6 6 7
4 5 6 8 6 4 6 6 6 6 6 7 6 3 5 9 8 6 6 6 7 7 8 8 8 7 8 7 7 7 6 6 6 6 7 7 7 8 9 9 8 8
6 6 7 6 5 7 9 8 7 4 4 5 4 2 6 7 2 3 6 6 6 7 6 7 8 7 7 7 7 8 7 7 7 7 8 8 8 9 9 8 7 8
1 4 9 9 7 9 10 7 2 -1 2 6 5 5 8 4 -2 3 9 7 5 6 6 6 7 7 8 8 7 8 7 7 7 7 8 8 8 9 7 6 6 5
-10 2 9 11 13 13 9 8 5 2 4 7 9 13 13 6 3 7 9 6 4 5 4 6 7 7 8 7 6 7 7 7 7 7 8 7 7 9 8 8 7 4
-7 6 9 10 16 14 2 -1 6 8 6 4 10 13 6 1 4 10 13 9 5 4 4 3 5 7 8 7 6 7 7 8 7 7 8 8 7 8 8 9 8 4
1 5 7 8 12 7 -8 -11 0 9 6 3 8 6 -4 -3 4 8 10 8 6 11 13 9 8 9 8 6 6 6 6 7 7 6 8 8 7 7 7 7 7 6
4 3 4 6 8 7 0 -3 2 9 8 4 6 5 -1 3 9 10 11 9 7 8 6 3 5 8 8 8 8 7 6 6 6 6 7 8 7 5 5 5 6 6
10 6 2 3 4 5 6 6 4 7 9 8 8 7 2 5 13 13 8 3 1 -1 -4 -4 1 6 8 9 9 7 8 8 6 5 6 7 6 4 3 4 5 6
21 13 5 5 4 3 4 7 8 7 5 8 12 8 0 4 10 6 -2 -2 3 5 4 4 6 9 10 11 10 7 8 9 8 7 6 5 5 5 5 3 4 6
19 19 18 17 14 9 4 3 7 9 6 6 10 7 2 3 7 5 0 1 4 4 3 6 9 10 10 10 8 5 4 5 6 6 5 5 4 4 5 5 4 5
4 9 18 23 22 16 10 6 6 7 7 7 6 6 7 6 7 7 2 1 7 8 4 4 8 8 7 9 11 8 5 2 1 2 4 6 5 4 5 6 4 4
4 2 4 13 22 20 11 7 8 6 7 9 6 5 6 6 7 8 2 1 7 8 4 3 5 5 3 5 7 8 8 6 5 6 7 7 7 7 8 9 8 6
16 11 2 1 19 31 18 5 6 7 4 7 10 8 7 5 4 4 4 4 5 5 4 3 5 6 5 4 4 5 6 5 5 5 7 8 7 5 5 7 10 9
28 29 21 8 14 32 29 9 3 5 3 3 5 6 9 10 6 5 5 6 7 8 5 4 6 7 6 5 7 7 6 5 5 4 4 5 5 6 6 6 7 8
31 29 31 26 21 31 36 24 12 10 13 16 14 10 11 13 12 13 9 7 10 10 6 9 10 6 7 11 12 11 8 5 5 5 6 7 5 2 3 4 3 3
1 -0 8 14 14 20 32 39 36 29 25 29 32 32 31 28 27 25 18 11 6 -3 -1 12 14 6 6 7 11 22 25 16 11 8 6 7 8 6 6 6 4 2
Height
5923 5924 5925 5926 5927 5928 5928 5929 5930 5930 5931 5932 5933 5934 5935 5935 5936 5937 5937 5938 5938 5939 5939 5939 5940 5940 5941 5941 5942 5942 5943 5943 5943 5944 5944 5944 5944 5944 5944 5944 5944 5944
5922 5923 5924 5926 5926 5927 5928 5929 5930 5930 5931 5932 5933 5934 5934 5935 5936 5936 5937 5938 5938 5938 5939 5939 5940 5940 5941 5941 5941 5942 5942 5942 5943 5943 5943 5943 5943 5943 5943 5943 5943 5944
5921 5923 5924 5925 5926 5927 5927 5928 5929 5930 5931 5932 5933 5933 5934 5935 5935 5936 5937 5937 5938 5938 5939 5939 5939 5940 5940 5941 5941 5941 5941 5942 5942 5942 5942 5942 5942 5942 5943 5943 5943 5943
5920 5921 5922 5923 5924 5925 5926 5927 5928 5929 5930 5931 5932 5933 5934 5934 5935 5936 5936 5937 5937 5938 5938 5939 5939 5939 5940 5940 5940 5940 5941 5941 5941 5941 5941 5941 5941 5942 5942 5942 5942 5942
5919 5920 5921 5922 5923 5924 5925 5926 5927 5928 5929 5930 5931 5932 5932 5933 5934 5935 5935 5936 5937 5937 5938 5938 5938 5939 5939 5939 5939 5939 5940 5940 5940 5940 5940 5940 5940 5940 5941 5941 5941 5941
5917 5918 5919 5920 5921 5922 5923 5924 5925 5926 5927 5928 5929 5930 5931 5932 5933 5933 5934 5935 5936 5936 5937 5937 5937 5938 5938 5938 5939 5939 5939 5939 5939 5939 5939 5939 5939 5939 5940 5940 5940 5940
5915 5916 5917 5918 5919 5920 5921 5922 5923 5924 5925 5926 5927 5929 5930 5930 5931 5932 5933 5934 5934 5935 5935 5936 5936 5936 5937 5937 5938 5938 5938 5938 5938 5938 5938 5938 5938 5938 5939 5939 5939 5939
5914 5915 5916 5918 5918 5919 5920 5920 5922 5922 5923 5924 5925 5926 5927 5928 5929 5930 5931 5932 5933 5933 5934 5934 5935 5935 5935 5936 5936 5936 5937 5937 5937 5937 5937 5937 5937 5937 5937 5937 5937 5938
5913 5914 5915 5916 5917 5919 5920 5920 5921 5922 5922 5923 5923 5924 5924 5925 5927 5928 5929 5930 5931 5931 5932 5932 5933 5933 5934 5934 5934 5935 5935 5935 5936 5936 5936 5936 5936 5936 5936 5936 5936 5936
5911 5913 5914 5913 5914 5916 5917 5917 5918 5920 5920 5921 5922 5923 5923 5924 5925 5925 5926 5928 5928 5929 5930 5930 5931 5931 5932 5932 5932 5933 5933 5934 5934 5934 5934 5934 5934 5935 5935 5935 5935 5935
5909 5911 5913 5913 5912 5913 5915 5916 5917 5918 5918 5918 5920 5921 5922 5923 5923 5923 5924 5925 5926 5927 5928 5928 5929 5929 5929 5930 5930 5931 5931 5932 5932 5932 5932 5933 5933 5933 5934 5934 5934 5934
5907 5908 5910 5911 5911 5912 5913 5915 5916 5917 5917 5917 5918 5918 5918 5919 5921 5922 5923 5923 5924 5925 5926 5926 5927 5927 5928 5928 5928 5929 5929 5930 5930 5930 5931 5931 5931 5932 5932 5933 5933 5933
5904 5905 5906 5907 5908 5910 5911 5912 5913 5914 5915 5917 5918 5918 5917 5917 5919 5921 5922 5923 5923 5923 5923 5924 5925 5926 5926 5926 5926 5927 5927 5927 5927 5928 5928 5928 5929 5929 5930 5931 5931 5931
5901 5902 5903 5904 5905 5907 5908 5909 5910 5912 5913 5915 5916 5917 5916 5917 5918 5918 5919 5921 5922 5921 5921 5922 5923 5923 5924 5924 5924 5924 5924 5924 5924 5925 5925 5926 5926 5926 5927 5928 5928 5928
5898 5899 5900 5901 5902 5903 5904 5906 5907 5909 5910 5912 5912 5913 5913 5914 5916 5916 5916 5917 5918 5918 5918 5919 5919 5920 5921 5921 5921 5922 5922 5922 5922 5922 5923 5924 5924 5924 5924 5925 5925 5925
5894 5896 5897 5898 5899 5900 5902 5903 5904 5906 5907 5908 5909 5910 5910 5911 5912 5913 5914 5914 5914 5915 5916 5916 5916 5916 5917 5918 5919 5919 5920 5920 5920 5921 5921 5921 5921 5921 5921 5922 5922 5922
5889 5891 5893 5895 5897 5898 5899 5900 5902 5903 5904 5905 5906 5907 5907 5908 5908 5910 5911 5912 5913 5913 5914 5915 5914 5913 5913 5915 5916 5916 5917 5917 5917 5918 5919 5919 5919 5918 5918 5918 5918 5918
5885 5887 5889 5892 5893 5894 5896 5897 5899 5900 5901 5902 5902 5903 5903 5904 5905 5906 5907 5908 5909 5910 5911 5912 5911 5910 5910 5912 5913 5914 5914 5914 5914 5915 5916 5917 5916 5916 5915 5915 5915 5915
5881 5883 5885 5887 5889 5890 5892 5893 5895 5896 5897 5898 5898 5899 5900 5901 5902 5902 5903 5904 5905 5906 5907 5908 5908 5907 5908 5909 5910 5911 5911 5911 5912 5912 5912 5913 5913 5912 5912 5912 5912 5913
5878 5879 5881 5883 5884 5885 5887 5888 5890 5891 5893 5894 5895 5896 5896 5897 5898 5898 5899 5900 5901 5901 5903 5905 5906 5905 5904 5904 5906 5907 5907 5908 5909 5909 5909 5909 5909 5909 5908 5908 5909 5909
5874 5876 5878 5879 5879 5880 5881 5883 5885 5887 5888 5889 5890 5892 5893 5893 5894 5895 5895 5896 5896 5896 5900 5903 5904 5902 5901 5901 5901 5902 5903 5904 5906 5906 5906 5906 5905 5905 5905 5905 5905 5906
5871 5873 5874 5874 5874 5875 5877 5878 5880 5882 5884 5885 5886 5887 5888 5889 5890 5891 5891 5891 5891 5893 5898 5900 5899 5898 5899 5899 5899 5899 5898 5899 5900 5901 5902 5902 5901 5901 5901 5901 5902 5902
5866 5867 5869 5870 5871 5871 5872 5874 5876 5877 5879 5880 5881 5882 5884 5884 5885 5886 5887 5887 5887 5889 5893 5895 5894 5894 5895 5895 5895 5895 5895 5895 5895 5896 5896 5897 5897 5896 5896 5896 5897 5898
5861 5862 5863 5865 5866 5867 5868 5870 5872 5873 5874 5875 5876 5878 5879 5880 5881 5882 5882 5883 5884 5885 5887 5889 5890 5890 5890 5891 5891 5891 5890 5890 5890 5890 5890 5890 5891 5891 5891 5892 5893 5894
5857 5858 5860 5861 5862 5863 5865 5866 5867 5868 5869 5870 5871 5873 5874 5875 5875 5877 5877 5878 5879 5880 5882 5884 5884 5885 5885 5886 5887 5886 5885 5884 5884 5884 5884 5884 5884 5885 5885 5887 5888 5888
5855 5855 5857 5858 5859 5860 5861 5862 5863 5863 5864 5866 5867 5868 5869 5870 5870 5871 5872 5873 5874 5876 5878 5878 5879 5880 5881 5882 5882 5880 5878 5877 5877 5878 5878 5878 5878 5879 5880 5881 5882 5882